Time,TemperatureF,DewpointF,PressureIn,WindDirection,WindDirectionDegrees,WindSpeedMPH,WindSpeedGustMPH,Humidity,HourlyPrecipIn,Conditions,Clouds,dailyrainin,SoftwareType,DateUTC
2013-07-23 00:00:00,71.0,61.1,29.62,NNW,331,0.0,9.0,71,0.01,,---,0.02,VWS V14.01,2013-07-23 05:00:00,
2013-07-23 00:30:00,68.4,62.0,29.62,NNW,343,0.0,6.0,80,0.04,,---,0.03,VWS V14.01,2013-07-23 05:30:00,
2013-07-23 01:00:00,66.8,61.8,29.61,SSW,200,0.0,5.0,84,0.04,,---,0.03,VWS V14.01,2013-07-23 06:00:00,
2013-07-23 01:30:00,66.8,62.2,29.61,NW,315,0.0,7.0,85,0.03,,---,0.03,VWS V14.01,2013-07-23 06:30:00,
2013-07-23 02:00:00,66.3,61.7,29.59,SSW,200,0.0,4.0,85,0.00,,---,0.03,VWS V14.01,2013-07-23 07:00:00,
2013-07-23 02:30:00,66.7,61.7,29.60,NNW,327,0.0,4.0,84,0.00,,---,0.03,VWS V14.01,2013-07-23 07:30:00,
2013-07-23 03:00:00,66.9,61.9,29.60,NNW,327,0.0,4.0,84,0.00,,---,0.03,VWS V14.01,2013-07-23 08:00:00,
2013-07-23 03:30:00,66.2,61.6,29.58,North,350,0.0,1.0,85,0.00,,---,0.03,VWS V14.01,2013-07-23 08:30:00,
2013-07-23 04:00:00,66.7,61.7,29.59,North,351,0.0,4.0,84,0.00,,---,0.03,VWS V14.01,2013-07-23 09:00:00,
2013-07-23 04:30:00,66.5,61.2,29.60,NNW,342,0.0,5.0,83,0.00,,---,0.03,VWS V14.01,2013-07-23 09:30:00,
2013-07-23 05:00:00,65.7,61.1,29.61,North,355,0.0,5.0,85,0.00,,---,0.03,VWS V14.01,2013-07-23 10:00:00,
2013-07-23 05:30:00,66.1,61.8,29.62,NNW,346,0.0,4.0,86,0.00,,---,0.03,VWS V14.01,2013-07-23 10:30:00,
2013-07-23 06:00:00,66.1,62.1,29.63,NNW,346,0.0,0.0,87,0.00,,---,0.03,VWS V14.01,2013-07-23 11:00:00,
2013-07-23 06:30:00,66.8,62.5,29.65,North,355,0.0,5.0,86,0.00,,---,0.03,VWS V14.01,2013-07-23 11:30:00,
2013-07-23 07:00:00,67.7,59.5,29.65,NE,34,3.0,7.0,75,0.00,,---,0.03,VWS V14.01,2013-07-23 12:00:00,
2013-07-23 07:30:00,67.3,58.7,29.67,North,10,0.0,4.0,74,0.00,,---,0.03,VWS V14.01,2013-07-23 12:30:00,
2013-07-23 08:00:00,67.1,57.0,29.68,NNE,26,0.0,4.0,70,0.00,,---,0.03,VWS V14.01,2013-07-23 13:00:00,
2013-07-23 08:30:00,67.3,58.7,29.70,North,349,6.0,7.0,74,0.00,,---,0.03,VWS V14.01,2013-07-23 13:30:00,
2013-07-23 09:00:00,69.1,58.5,29.69,NNW,348,0.0,9.0,69,0.00,,---,0.03,VWS V14.01,2013-07-23 14:00:00,
2013-07-23 09:30:00,70.9,59.4,29.70,West,272,0.0,7.0,67,0.00,,---,0.03,VWS V14.01,2013-07-23 14:30:00,
2013-07-23 10:00:00,69.9,59.3,29.71,NNW,340,0.0,7.0,69,0.00,,---,0.03,VWS V14.01,2013-07-23 15:00:00,
2013-07-23 10:30:00,71.3,60.2,29.71,NE,45,0.0,10.0,68,0.00,,---,0.03,VWS V14.01,2013-07-23 15:30:00,
2013-07-23 11:00:00,70.5,56.4,29.73,ENE,59,0.0,9.0,61,0.00,,---,0.03,VWS V14.01,2013-07-23 16:00:00,
2013-07-23 11:30:00,71.6,59.7,29.74,NW,324,0.0,11.0,66,0.00,,---,0.03,VWS V14.01,2013-07-23 16:30:00,
2013-07-23 12:00:00,71.6,57.0,29.75,North,355,5.0,12.0,60,0.00,,---,0.03,VWS V14.01,2013-07-23 17:00:00,
2013-07-23 12:30:00,71.1,57.0,29.75,NNW,343,9.0,16.0,61,0.00,,---,0.03,VWS V14.01,2013-07-23 17:30:00,
2013-07-23 13:00:00,72.8,56.7,29.75,NNW,344,0.0,12.0,57,0.00,,---,0.03,VWS V14.01,2013-07-23 18:00:00,
2013-07-23 13:30:00,73.1,56.5,29.76,North,349,4.0,14.0,56,0.00,,---,0.03,VWS V14.01,2013-07-23 18:30:00,
2013-07-23 14:00:00,72.2,55.7,29.77,NNW,348,12.0,15.0,56,0.00,,---,0.03,VWS V14.01,2013-07-23 19:00:00,
2013-07-23 14:30:00,73.4,56.8,29.77,NNW,336,0.0,12.0,56,0.00,,---,0.03,VWS V14.01,2013-07-23 19:30:00,
2013-07-23 15:00:00,71.5,55.0,29.77,NNW,340,2.0,13.0,56,0.00,,---,0.03,VWS V14.01,2013-07-23 20:00:00,
2013-07-23 15:30:00,71.4,59.0,29.78,West,262,0.0,7.0,65,0.00,,---,0.03,VWS V14.01,2013-07-23 20:30:00,
2013-07-23 16:00:00,68.9,57.9,29.79,WSW,255,0.0,7.0,68,0.00,,---,0.03,VWS V14.01,2013-07-23 21:00:00,
2013-07-23 16:30:00,71.3,58.1,29.78,South,182,0.0,5.0,63,0.00,,---,0.03,VWS V14.01,2013-07-23 21:30:00,
2013-07-23 17:00:00,72.0,59.6,29.78,SSE,150,5.0,6.0,65,0.00,,---,0.03,VWS V14.01,2013-07-23 22:00:00,
2013-07-23 17:30:00,71.0,54.0,29.78,ESE,122,0.0,15.0,55,0.00,,---,0.03,VWS V14.01,2013-07-23 22:30:00,
2013-07-23 18:00:00,70.4,54.0,29.79,NNW,345,0.0,15.0,56,0.00,,---,0.03,VWS V14.01,2013-07-23 23:00:00,
2013-07-23 18:30:00,67.7,54.7,29.79,West,265,0.0,10.0,63,0.00,,---,0.03,VWS V14.01,2013-07-23 23:30:00,
2013-07-23 19:00:00,66.9,56.0,29.81,WSW,252,0.0,2.0,68,0.00,,---,0.03,VWS V14.01,2013-07-24 00:00:00,
2013-07-23 19:30:00,65.0,54.6,29.82,South,185,0.0,1.0,69,0.00,,---,0.03,VWS V14.01,2013-07-24 00:30:00,
2013-07-23 20:00:00,62.9,54.5,29.83,WSW,250,0.0,0.0,74,0.00,,---,0.03,VWS V14.01,2013-07-24 01:00:00,
2013-07-23 20:30:00,61.3,54.0,29.83,WNW,284,0.0,0.0,77,0.00,,---,0.03,VWS V14.01,2013-07-24 01:30:00,
2013-07-23 21:00:00,60.0,53.8,29.85,SSW,202,0.0,0.0,80,0.00,,---,0.03,VWS V14.01,2013-07-24 02:00:00,
2013-07-23 22:00:00,58.9,53.8,29.87,West,260,0.0,0.0,83,0.00,,---,0.03,VWS V14.01,2013-07-24 03:00:00,
2013-07-23 22:30:00,58.2,53.4,29.88,West,260,0.0,0.0,84,0.00,,---,0.03,VWS V14.01,2013-07-24 03:30:00,
2013-07-23 23:00:00,58.3,53.5,29.89,West,260,0.0,0.0,84,0.00,,---,0.03,VWS V14.01,2013-07-24 04:00:00,
2013-07-23 23:30:00,57.7,53.2,29.90,West,260,0.0,0.0,85,0.00,,---,0.03,VWS V14.01,2013-07-24 04:30:00,